Home   Weather   City of Columbus   Past weeks
Flag for USA

Past Weather in City of Columbus, Wisconsin, USA — Yesterday and Last 2 Weeks

Now
33 °F

Light snow. Fog.


Feels Like: 25 °F
Forecast: 35 / 32 °F
Wind: 10 mph from Northeast

Location: Dane County Regional-Truax Field

Current Time: Jan 24, 2020 at 8:50:02 am

Latest Report: Jan 24, 2020 at 7:53 am


Visibility: 2 mi

Pressure: 29.94 "Hg

Humidity: 92%

Dew Point: 31 °F

Location of City of ColumbusLocation

Past Weather in City of Columbus — Graph

°F

City of Columbus Temperature Yesterday

Maximum temperature yesterday: 32 °F (at 12:53 pm)
Minimum temperature yesterday: 28 °F (at 1:02 am)
Average temperature yesterday: 30 °F

High & Low Weather Summary for the Past Weeks

 TemperatureHumidityPressure
High49 °F (Jan 9, 4:53 pm)96% (Jan 10, 4:53 am)30.86 "Hg (Jan 10, 4:53 am)
Low1 °F (Jan 17, 2:53 am)48% (Jan 16, 1:53 pm)29.64 "Hg (Jan 18, 8:36 am)
Average24 °F81%30.17 "Hg
* Reported Jan 9 7:53 am — Jan 24 7:31 am, City of Columbus. Weather by CustomWeather, © 2020

Note: Actual official high and low records may vary slightly from our data, if they occured in-between our weather recording intervals... More about our weather records

City of Columbus Weather History for the Previous 24 Hours

Scroll right to see more
 ConditionsComfort  
Time TempWeatherWind HumidityBarometerVisibility
7:31 am
Fri, Jan 24
33 °FLight snow. Fog.10 mph92%29.91 "Hg2 mi
6:53 am33 °FLight snow. Fog.9 mph92%29.94 "Hg3 mi
5:53 am33 °FLight snow. Fog.9 mph92%29.94 "Hg3 mi
5:24 am33 °FLight snow. Fog.9 mph92%29.92 "Hg2 mi
4:53 am33 °FLight snow. Fog.8 mph92%29.95 "Hg1 mi
4:17 am33 °FLight snow. Fog.8 mph92%29.93 "Hg1 mi
3:53 am33 °FLight snow. Fog.8 mph92%29.96 "Hg1 mi
2:53 am32 °FLight snow. Ice fog.7 mph96%29.98 "Hg1 mi
1:53 am32 °FLight snow. Ice fog.5 mph92%29.99 "Hg1 mi
1:36 am32 °FLight snow. Ice fog.7 mph92%29.96 "Hg2 mi
1:07 am32 °FIce fog.8 mph92%29.97 "Hg2 mi
12:53 am32 °FIce fog.7 mph92%30.00 "Hg2 mi
12:24 am32 °FLight snow. Ice fog.7 mph92%29.98 "Hg2 mi
11:53 pm
Thu, Jan 23
32 °FIce fog.7 mph92%30.02 "Hg2 mi
11:13 pm32 °FIce fog.7 mph92%30.00 "Hg3 mi
11:06 pm31 °FIce fog.7 mph96%30.00 "Hg2 mi
10:53 pm31 °FLight snow. Ice fog.7 mph92%30.03 "Hg3 mi
9:53 pm32 °FIce fog.8 mph88%30.03 "Hg4 mi
8:53 pm32 °FIce fog.7 mph88%30.04 "Hg4 mi
7:53 pm32 °FIce fog.6 mph92%30.05 "Hg4 mi
6:53 pm32 °FLight snow. Ice fog.7 mph92%30.05 "Hg3 mi
5:53 pm32 °FIce fog.7 mph88%30.05 "Hg2 mi
4:56 pm32 °FLight snow. Ice fog.7 mph88%30.01 "Hg2 mi
4:13 pm32 °FIce fog.6 mph88%30.01 "Hg3 mi
3:53 pm32 °FLight snow. Ice fog.6 mph88%30.03 "Hg2 mi
3:33 pm32 °FLight snow. Ice fog.6 mph88%30.00 "Hg2 mi
3:13 pm32 °FLight snow. Ice fog.6 mph88%30.00 "Hg3 mi
2:53 pm32 °FLight snow. Ice fog.6 mph88%30.03 "Hg3 mi
1:53 pm32 °FLight snow. Ice fog.5 mph85%30.02 "Hg4 mi
12:53 pm32 °FLight snow. Ice fog.5 mph85%30.02 "Hg5 mi
12:22 pm31 °FLight snow. Ice fog.3 mph89%30.00 "Hg3 mi
12:06 pm31 °FLight snow. Ice fog.7 mph89%30.01 "Hg2 mi
11:53 am31 °FLight snow. Ice fog.6 mph89%30.04 "Hg1 mi
11:34 am31 °FLight snow. Ice fog.6 mph89%30.01 "Hg2 mi
10:53 am30 °FLight snow. Ice fog.5 mph92%30.06 "Hg2 mi
9:53 am30 °FLight snow. Ice fog.6 mph89%30.06 "Hg2 mi
9:41 am30 °FLight snow. Ice fog.6 mph89%30.02 "Hg2 mi
9:12 am30 °FLight snow. Ice fog.8 mph89%30.02 "Hg1 mi
8:33 am29 °FLight snow. Ice fog.6 mph93%30.01 "Hg3 mi
Weather by CustomWeather, © 2020

See weather overview

Advertising